| time (UTC) | temp F | wind direction | speed knots | gust knots | rain 1hr in | rain 24hr in | rain mn in | humidity % | barometer mb |
| 20260502191513 | 51 | 223 | 0.9 | 6.1 | 0.00 | 0.04 | 0.04 | 78 | 1007.5 |
| 20260502190010 | 52 | 225 | 2.6 | 9.6 | 0.00 | 0.04 | 0.04 | 74 | 1007.6 |
| 20260502184505 | 54 | 205 | 4.3 | 11.3 | 0.00 | 0.04 | 0.04 | 68 | 1007.3 |
| 20260502183001 | 54 | 218 | 4.3 | 11.3 | 0.00 | 0.04 | 0.04 | 69 | 1007.3 |
| 20260502181610 | 55 | 198 | 2.6 | 13.0 | 0.00 | 0.04 | 0.04 | 68 | 1007.4 |
| 20260502163037 | 51 | 165 | 1.7 | 7.8 | 0.00 | 0.04 | 0.04 | 78 | 1008.1 |
| 20260502161535 | 51 | 165 | 3.5 | 7.0 | 0.00 | 0.04 | 0.04 | 82 | 1008.2 |
| 20260502151513 | 50 | 200 | 1.7 | 7.0 | 0.00 | 0.04 | 0.04 | 82 | 1008.9 |
| 20260502123032 | 45 | 276 | 0.0 | 0.9 | 0.02 | 0.04 | 0.04 | 89 | 1010.1 |
| 20260502121527 | 45 | 294 | 0.0 | 3.5 | 0.02 | 0.04 | 0.04 | 89 | 1009.8 |
| 20260502114518 | 46 | 284 | 1.7 | 5.2 | 0.00 | 0.02 | 0.02 | 89 | 1009.4 |
| 20260502113013 | 46 | 60 | 1.7 | 7.0 | 0.02 | 0.02 | 0.02 | 90 | 1009.0 |
| 20260502111509 | 46 | 280 | 0.0 | 3.5 | 0.02 | 0.02 | 0.02 | 90 | 1009.2 |
| 20260502110005 | 46 | 266 | 1.7 | 4.3 | 0.02 | 0.02 | 0.02 | 89 | 1009.3 |
| 20260502104501 | 46 | 158 | 0.0 | 1.7 | 0.02 | 0.02 | 0.02 | 88 | 1008.8 |
| 20260502103108 | 46 | 175 | 0.9 | 3.5 | 0.00 | 0.00 | 0.00 | 87 | 1008.5 |
| 20260502101634 | 47 | 202 | 1.7 | 4.3 | 0.00 | 0.00 | 0.00 | 86 | 1008.7 |
| 20260502100117 | 46 | 148 | 0.0 | 0.9 | 0.00 | 0.00 | 0.00 | 86 | 1008.2 |
| 20260502071510 | 49 | 146 | 0.0 | 5.2 | 0.00 | 0.00 | 0.00 | 73 | 1008.3 |
| 20260502070006 | 49 | 216 | 1.7 | 6.1 | 0.00 | 0.00 | 0.00 | 71 | 1008.6 |
| 20260502064502 | 49 | 240 | 0.9 | 1.7 | 0.00 | 0.00 | 0.00 | 70 | 1008.3 |
| 20260502063105 | 49 | 243 | 0.0 | 3.5 | 0.00 | 0.00 | 0.00 | 68 | 1008.4 |
| 20260502061559 | 49 | 201 | 2.6 | 5.2 | 0.00 | 0.00 | 0.00 | 68 | 1009.0 |
| 20260502060056 | 49 | 173 | 1.7 | 5.2 | 0.00 | 0.00 | 0.00 | 66 | 1008.8 |
| 20260502054550 | 49 | 150 | 0.9 | 5.2 | 0.00 | 0.00 | 0.00 | 65 | 1008.6 |
| 20260502053105 | 49 | 215 | 0.0 | 1.7 | 0.00 | 0.00 | 0.00 | 63 | 1008.5 |
| 20260502051542 | 49 | 233 | 0.0 | 2.6 | 0.00 | 0.00 | 0.00 | 61 | 1008.7 |
| 20260502050038 | 49 | 234 | 0.0 | 1.7 | 0.00 | 0.00 | 0.00 | 60 | 1008.8 |
| 20260502044534 | 49 | 153 | 0.0 | 1.7 | 0.00 | 0.00 | 0.00 | 61 | 1008.7 |
| 20260502043030 | 49 | 222 | 0.0 | 0.9 | 0.00 | 0.00 | 0.00 | 59 | 1008.7 |
| 20260502041529 | 50 | 229 | 0.0 | 0.9 | 0.00 | 0.00 | 0.00 | 58 | 1008.7 |
| 20260502040017 | 50 | 229 | 0.0 | 1.7 | 0.00 | 0.00 | 0.00 | 57 | 1009.0 |
| 20260502034509 | 50 | 210 | 0.0 | 1.7 | 0.00 | 0.00 | 0.00 | 57 | 1009.0 |
| 20260502033006 | 50 | 163 | 0.0 | 0.9 | 0.00 | 0.00 | 0.00 | 57 | 1009.0 |
| 20260502031502 | 49 | 221 | 0.0 | 2.6 | 0.00 | 0.00 | 0.00 | 58 | 1009.0 |
| 20260502030104 | 49 | 199 | 0.9 | 5.2 | 0.00 | 0.00 | 0.00 | 59 | 1009.0 |
| 20260502024558 | 49 | 213 | 3.5 | 8.7 | 0.00 | 0.00 | 0.00 | 60 | 1008.8 |
| 20260502023109 | 49 | 304 | 0.0 | 0.0 | 0.00 | 0.00 | 0.00 | 58 | 1008.6 |
| 20260502021551 | 49 | 304 | 0.0 | 0.0 | 0.00 | 0.00 | 0.00 | 57 | 1008.7 |
| 20260502020050 | 50 | 304 | 0.0 | 0.0 | 0.00 | 0.00 | 0.00 | 54 | 1008.7 |
| 20260502014545 | 50 | 305 | 0.0 | 0.0 | 0.00 | 0.00 | 0.00 | 56 | 1008.6 |
| 20260502013042 | 51 | 305 | 0.0 | 0.0 | 0.00 | 0.00 | 0.00 | 50 | 1008.6 |
| 20260502011542 | 52 | 305 | 0.0 | 0.9 | 0.00 | 0.00 | 0.00 | 45 | 1008.4 |
| 20260502010034 | 54 | 276 | 0.0 | 1.7 | 0.00 | 0.00 | 0.00 | 43 | 1008.2 |
| 20260502004530 | 55 | 271 | 0.0 | 1.7 | 0.00 | 0.00 | 0.00 | 40 | 1008.0 |
| 20260502003029 | 55 | 231 | 0.0 | 2.6 | 0.00 | 0.00 | 0.00 | 40 | 1007.9 |
| 20260502001523 | 56 | 225 | 0.9 | 2.6 | 0.00 | 0.00 | 0.00 | 39 | 1007.7 |
| 20260502000019 | 57 | 238 | 0.0 | 3.5 | 0.00 | 0.00 | 0.00 | 38 | 1007.4 |
| 20260501234514 | 57 | 275 | 0.9 | 4.3 | 0.00 | 0.00 | 0.00 | 37 | 1007.2 |
| 20260501233010 | 58 | 236 | 0.9 | 7.0 | 0.00 | 0.00 | 0.00 | 35 | 1007.1 |
| 20260501231509 | 60 | 266 | 0.9 | 3.5 | 0.00 | 0.00 | 0.00 | 34 | 1006.8 |
| 20260501230107 | 60 | 292 | 2.6 | 8.7 | 0.00 | 0.00 | 0.00 | 34 | 1006.6 |
| 20260501224600 | 60 | 271 | 0.9 | 7.8 | 0.00 | 0.00 | 0.00 | 34 | 1006.5 |
| 20260501223108 | 60 | 263 | 3.5 | 10.4 | 0.00 | 0.00 | 0.00 | 34 | 1006.6 |
| 20260501221547 | 61 | 297 | 4.3 | 8.7 | 0.00 | 0.00 | 0.00 | 33 | 1006.5 |
| 20260501220043 | 60 | 305 | 3.5 | 12.2 | 0.00 | 0.00 | 0.00 | 34 | 1006.3 |
| 20260501214539 | 60 | 239 | 0.9 | 7.8 | 0.00 | 0.00 | 0.00 | 34 | 1006.3 |
| 20260501213035 | 60 | 291 | 7.0 | 11.3 | 0.00 | 0.00 | 0.00 | 33 | 1006.3 |
| 20260501211528 | 60 | 293 | 3.5 | 13.0 | 0.00 | 0.00 | 0.00 | 34 | 1006.3 |
| 20260501210024 | 61 | 249 | 3.5 | 7.8 | 0.00 | 0.00 | 0.00 | 34 | 1006.2 |
| 20260501204520 | 59 | 271 | 7.8 | 18.2 | 0.00 | 0.00 | 0.00 | 34 | 1006.1 |
| 20260501203035 | 60 | 266 | 4.3 | 12.2 | 0.00 | 0.00 | 0.00 | 34 | 1006.0 |
| 20260501201513 | 59 | 309 | 6.1 | 15.6 | 0.00 | 0.00 | 0.00 | 32 | 1005.9 |
| 20260501200011 | 60 | 276 | 5.2 | 15.6 | 0.00 | 0.00 | 0.00 | 32 | 1005.9 |
| 20260501194507 | 60 | 315 | 1.7 | 13.9 | 0.00 | 0.00 | 0.00 | 33 | 1005.9 |
| 20260501193000 | 60 | 255 | 7.0 | 16.5 | 0.00 | 0.00 | 0.00 | 34 | 1006.1 |